Location: Newark
(46.3833°N, 12.2833°E)
Time: 23:39:43
(UTC+00:00)

SEEDS - Visible Passes

Search period start: 22 October 2019 00:00
Search period end: 01 November 2019 00:00
Orbit: 586 x 604 km, 97.5° (Epoch: 22 October)

Date Brightness Start Highest point End Pass type
(mag) Time Alt. Az. Time Alt. Az. Time Alt. Az.
22 Oct ? 04:04:21 10° NE 04:06:47 15° E 04:09:14 10° SE visible
23 Oct ? 04:13:30 10° NE 04:16:30 19° E 04:19:27 10° SE visible
23 Oct ? 16:41:46 10° S 16:45:50 45° W 16:49:55 10° NNW visible
24 Oct ? 04:22:47 10° NE 04:26:10 23° E 04:29:31 10° SSE visible
24 Oct ? 16:51:35 10° SSW 16:55:29 36° W 16:59:24 10° NNW visible
25 Oct ? 04:32:09 10° NNE 04:35:49 29° E 04:39:28 10° SSE visible
25 Oct ? 17:01:27 10° SSW 17:05:07 29° W 17:08:49 10° NW visible
26 Oct ? 04:41:35 10° NNE 04:45:28 37° E 04:49:19 10° SSE visible
26 Oct ? 17:11:25 10° SSW 17:14:47 23° W 17:18:11 10° NW visible
27 Oct ? 04:51:04 10° NNE 04:55:06 47° E 04:59:06 10° S visible
27 Oct ? 17:21:29 10° SW 17:24:28 18° W 17:27:26 10° NW visible
28 Oct ? 05:00:35 10° NNE 05:04:43 60° E 05:08:48 10° S visible
28 Oct ? 17:31:45 10° SW 17:34:09 15° W 17:36:33 10° NW visible
29 Oct ? 05:10:08 10° NNE 05:14:19 77° ESE 05:18:27 10° S visible
29 Oct ? 17:42:20 10° WSW 17:43:51 12° W 17:45:22 10° WNW visible
31 Oct ? 03:55:37 10° ENE 03:57:23 12° E 03:59:07 10° ESE visible
31 Oct ? 16:22:41 10° S 16:26:53 71° WSW 16:31:06 10° NNW visible
